User: anonymous   Login
Location: Nebula Knoll Observatory
(43.6666°N, 71.0000°W)
Time: 03:23:52
(UTC-04:00)
Language:

Cosmos 1782 - Orbit

View from above orbital plane
View from above orbital plane
View from above satellite
View from above satellite

Ground track
Ground track

The orbit data is extracted from the following two-line orbital elements,

1 16986U 86074A   16182.91704709 +.00000954 +00000-0 +63133-4 0  9998
2 16986 082.5079 102.8424 0012850 097.7334 262.5353 15.06136362596798
Epoch (UTC): 30 June 2016 22:00:32
Eccentricity: 0.0012850
inclination: 82.5079°
perigee height: 539 km
apogee height: 557 km
right ascension of ascending node: 102.8424°
argument of perigee: 97.7334°
revolutions per day: 15.06136362
mean anomaly at epoch: 262.5353°
orbit number at epoch: 59679

The dashed part of the orbit path shows where the satellite is in the earth's shadow,  

DLR